Buffalo, NY

3:48 PM EST on December 11, 2019 (GMT -0500)
Buffalo Niagara International

Weather History for KBUF - July, 2019

Change the Weather History Date:

Saturday, July 20, 2019

  Actual Average Record
Temperature  
Mean Temperature 80 °F 71 °F  
Max Temperature 85 °F 80 °F 91 °F (1978)
Min Temperature 75 °F 63 °F 46 °F (1965)
Degree Days  
Heating Degree Days 0 0  
Month to date heating degree days 0 2  
Since 1 June heating degree days 62 66  
Since 1 July heating degree days 0 2  
Cooling Degree Days 15 7  
Month to date cooling degree days 186 129  
Year to date cooling degree days 269 258  
Since 1 June cooling degree days 261 232  
Growing Degree Days 30 (Base 50)    
Moisture  
Dew Point 71 °F    
Average Humidity 74    
Maximum Humidity 87    
Minimum Humidity 61    
Precipitation  
Precipitation T in 0.11 in 3.54 in (1896)
Month to date precipitation 1.08 2.01  
Year to date precipitation 24.00 20.68  
Snow  
Snow 0.00 in 0.00 in 0.00 in ()
Month to date snowfall 0.0 0.0  
Since 1 June snowfall 0.0 0.0  
Since 1 July snowfall 0.0 0.0  
Snow Depth 0.00 in    
Sea Level Pressure  
Sea Level Pressure 29.84 in    
Wind  
Wind Speed 15 mph (SW)    
Max Wind Speed 26 mph    
Max Gust Speed 35 mph    
Visibility 10 miles    
Events      
T = Trace of Precipitation, MM = Missing Value Source: NWS Daily Summary

Daily Weather History Graph

Daily Weather History Graph

Search for Another Location

Airport or City:

Astronomy

Jul. 20, 2019 Rise Set
Actual Time 5:53 AM EDT 8:48 PM EDT
Civil Twilight 5:20 AM EDT 9:21 PM EDT
Nautical Twilight 4:37 AM EDT 10:04 PM EDT
Astronomical Twilight 3:47 AM EDT 10:53 PM EDT
Moon 11:10 PM EDT (7/20) 9:19 AM EDT (7/20)
Length of Visible Light 16h 01m
Length of Day
14h 54m
Waning Gibbous, 87% of the Moon is Illuminated
Jul 20
Waning Gibbous
Jul 24
Last Quarter
Jul 31
New
Aug 7
First Quarter
Aug 15
Full

Hourly Weather History & Observations

Time (EDT) Temp. Heat Index Dew Point Humidity Pressure Visibility Wind Dir Wind Speed Gust Speed Precip Events Conditions
12:54 AM 79.0 °F - 71.1 °F 77% 29.85 in 10.0 mi SW 8.1 mph - N/A   Mostly Cloudy
1:54 AM 79.0 °F - 71.1 °F 77% 29.83 in 10.0 mi SSW 8.1 mph - N/A   Overcast
2:54 AM 78.1 °F - 71.1 °F 79% 29.85 in 10.0 mi SW 11.5 mph - N/A   Overcast
3:33 AM 77.0 °F - 72.0 °F 84% 29.89 in 10.0 mi WSW 18.4 mph 26.5 mph N/A   Overcast
3:54 AM 75.9 °F - 71.1 °F 85% 29.86 in 10.0 mi SW 17.3 mph 25.3 mph N/A   Overcast
4:01 AM 75.9 °F - 70.0 °F 82% 29.88 in 10.0 mi SW 18.4 mph 25.3 mph N/A   Mostly Cloudy
4:54 AM 75.0 °F - 66.9 °F 76% 29.85 in 10.0 mi SW 10.4 mph - N/A   Overcast
5:54 AM 75.9 °F - 68.0 °F 76% 29.85 in 10.0 mi SW 13.8 mph - N/A   Overcast
6:54 AM 75.9 °F - 69.1 °F 79% 29.85 in 10.0 mi SW 8.1 mph - N/A   Overcast
7:54 AM 78.1 °F - 70.0 °F 76% 29.84 in 10.0 mi SW 10.4 mph - N/A   Overcast
8:54 AM 79.0 °F - 72.0 °F 79% 29.86 in 10.0 mi SW 15.0 mph 26.5 mph N/A   Overcast
9:54 AM 81.0 °F 85.2 °F 72.0 °F 74% 29.83 in 10.0 mi WSW 18.4 mph 24.2 mph N/A   Mostly Cloudy
10:54 AM 82.9 °F 88.0 °F 72.0 °F 69% 29.85 in 10.0 mi West 12.7 mph - N/A   Overcast
11:23 AM 82.9 °F 88.8 °F 73.0 °F 72% 29.85 in 10.0 mi SW 11.5 mph - N/A   Mostly Cloudy
11:54 AM 84.0 °F 89.6 °F 72.0 °F 67% 29.83 in 10.0 mi WSW 16.1 mph 29.9 mph N/A   Mostly Cloudy
12:54 PM 84.0 °F 88.4 °F 70.0 °F 63% 29.82 in 10.0 mi WSW 16.1 mph 24.2 mph N/A   Mostly Cloudy
1:54 PM 84.0 °F 88.4 °F 70.0 °F 63% 29.82 in 10.0 mi SW 19.6 mph 28.8 mph N/A   Scattered Clouds
2:54 PM 82.9 °F 87.0 °F 70.0 °F 65% 29.82 in 10.0 mi SW 24.2 mph 32.2 mph N/A   Scattered Clouds
3:54 PM 82.0 °F 86.3 °F 71.1 °F 69% 29.84 in 10.0 mi WSW 23.0 mph 28.8 mph N/A   Mostly Cloudy
4:54 PM 81.0 °F 84.9 °F 71.1 °F 72% 29.84 in 10.0 mi WSW 18.4 mph 26.5 mph N/A   Mostly Cloudy
5:54 PM 82.9 °F 87.0 °F 70.0 °F 65% 29.83 in 10.0 mi SW 19.6 mph 24.2 mph N/A   Clear
6:54 PM 81.0 °F 84.9 °F 71.1 °F 72% 29.83 in 10.0 mi WSW 18.4 mph 26.5 mph N/A   Scattered Clouds
7:54 PM 80.1 °F 83.6 °F 71.1 °F 74% 29.82 in 10.0 mi SW 15.0 mph 21.9 mph N/A   Scattered Clouds
8:54 PM 78.1 °F - 71.1 °F 79% 29.83 in 10.0 mi SW 12.7 mph - N/A   Mostly Cloudy
9:54 PM 79.0 °F - 70.0 °F 74% 29.83 in 10.0 mi SW 11.5 mph - N/A   Mostly Cloudy
10:30 PM 80.1 °F 83.2 °F 70.0 °F 71% 29.85 in 10.0 mi SW 11.5 mph - N/A   Mostly Cloudy
10:54 PM 79.0 °F - 71.1 °F 77% 29.87 in 10.0 mi West 12.7 mph - N/A   Mostly Cloudy
11:54 PM 77.0 °F - 71.1 °F 82% 29.82 in 10.0 mi SSW 12.7 mph - N/A   Mostly Cloudy